Meath Environmental Platform

Observations for Trim Patrick St

Time AQI Temp °C Hum % Pres Pa CO μg/m³ H₂S μg/m³ NO μg/m³ NO₂ μg/m³ O₃ μg/m³ SO₂ μg/m³ PM1 μg/m³ PM2.5 μg/m³ PM10 μg/m³
Thursday 6 August 2026
02:38 2 13.3 75 38,460 0.29 0.02 3.39 10 29.52 0 4.57 7.69 8.45
02:37 2 13.3 75 38,460 0.31 0.38 3.39 12.93 46.79 0 4.57 9.12 10.03
02:36 2 13.3 75 38,460 0.3 0.2 3.45 11.03 32.71 0 4.57 7.68 8.45
02:34 2 13.3 75 38,460 0.29 1.13 3.39 12.13 39.37 0 6.29 9.83 10.81
02:32 2 13.3 75 38,460 0.32 0.64 3.36 10.86 34.53 0 7.14 11.23 12.35
02:28 2 13.3 74 38,460 0.31 1.32 3.36 13.6 34.47 0 7.14 12.02 13.22
02:27 2 13.3 74 38,460 0.31 1.01 3.33 11.55 32 0 7.14 11.31 12.44
02:26 2 13.3 74 38,460 0.33 2.2 3.27 12.2 34.9 0 6.29 12.7 13.98
02:25 2 13.3 75 38,460 0.32 1.91 3.27 16.16 40.37 0 7.14 11.98 13.17
02:24 2 13.3 75 38,460 0.36 1.73 3.26 24.31 18.7 0 8 13.37 14.71
02:23 2 13.3 75 38,460 0.33 1.6 3.31 20.92 17.48 0 8 14.08 15.49
02:22 2 13.3 75 38,460 0.3 0.64 3.33 10.82 30.84 0 7.14 10.54 11.59
02:21 2 13.3 75 38,460 0.3 1.99 3.42 10.7 33.47 0 8.86 11.93 13.13
02:20 2 13.3 75 38,460 0.3 2.02 3.43 13.82 48.89 0 8 14.82 16.3
02:19 2 13.3 74 38,460 0.3 1.42 3.41 12.04 32.8 0 6.29 12 13.2
02:17 2 13.3 74 38,460 0.29 1.13 3.52 13.81 45.85 0 7.14 12.7 13.97
02:16 2 13.3 74 38,460 0.29 0.93 3.44 11.5 38.26 0 6.29 10.57 11.63
02:15 2 13.3 74 38,460 0.28 0.85 3.44 11.49 32.86 0 6.29 11.99 13.19
02:14 2 13.3 74 38,460 0.29 1.19 3.45 12.2 40.08 0 7.14 11.98 13.18
02:13 2 13.3 74 38,460 0.28 0.33 3.58 11.76 33.48 0 6.29 12.03 13.23